Regional Weather Roundup
Issued by NWS Cleveland, OH

Home | Current Version | Previous Version | Graphics & Text | Print | Product List | Glossary On
Versions: 1 2 3 4 5 6 7 8 9 10 11 12 13 14 15 16 17 18 19 20 21 22 23 24 25 26 27 28 29 30 31 32 33 34 35 36 37 38 39 40 41 42 43 44 45 46 47 48 49 50
708
ASUS41 KCLE 261010
RWRCLE
OHIO REGIONAL WEATHER ROUNDUP
NATIONAL WEATHER SERVICE WILMINGTON, OH
500 AM EST SUN FEB 26 2017

NOTE: "FAIR" INDICATES FEW OR NO CLOUDS BELOW 12,000 FEET WITH NO
SIGNIFICANT WEATHER AND/OR OBSTRUCTIONS TO VISIBILITY.

OHZ001>008-015>018-024>027-034-035-043-044-261100-
   NORTHWEST OHIO

CITY           SKY/WX    TMP DP  RH WIND       PRES   REMARKS
DEFIANCE       FAIR      25  17  72 W3        30.08R
FINDLAY        CLOUDY    27  15  61 W8        30.07R WCI  19
TOLEDO EXPRESS MOCLDY    25  20  81 W10       30.07R WCI  15
TOLEDO EXEC    CLOUDY    26  19  74 W9        30.08R WCI  17
LIMA           MOCLDY    23  20  88 W6        30.07R WCI  16
$$

OHZ009>014-019>023-028>033-038-089-261100-
   NORTHEAST OHIO

CITY           SKY/WX    TMP DP  RH WIND       PRES   REMARKS
CLE-HOPKINS    FLURRIES  27  18  69 W14       30.07R WCI  16
CLE-LAKEFRONT  FLURRIES  27  19  72 W21       30.04R WCI  13
CUY CO. ARPT   NOT AVBL
LORAIN-ELYRIA  CLOUDY    25  16  68 W13       30.06R WCI  14
ASHTABULA      CLOUDY    25  15  66 W12       30.01R WCI  14
AKRON-CANTON   CLOUDY    25  16  68 W9        30.02R WCI  15
WOOSTER        CLOUDY    25  18  74 W15G21    30.05R WCI  13
MANSFIELD      CLOUDY    23  18  81 W7        30.04R WCI  15
YOUNGSTOWN     FLURRIES  25  13  60 W16G24    30.00R WCI  12
$$

OHZ042-051>053-060>062-070>072-077>081-261100-
  SOUTHWEST OHIO

CITY           SKY/WX    TMP DP  RH WIND       PRES   REMARKS
CINC-COVINGTON FAIR      23  15  71 NW8       30.12R WCI  14
CINC-LUNKEN    FAIR      28  17  63 VRB3      30.16R
HAMILTON       FAIR      23  17  78 W5        30.14R WCI  17
DAYTON         MOCLDY    26  15  63 NW10      30.09R WCI  16
WRIGHT-PAT AFB CLOUDY    28  17  63 W9        30.09R WCI  19
DAYTON GENERAL CLOUDY    26  16  65 W6        30.10R WCI  19
WILMINGTON     CLOUDY    26  15  63 NW12      30.09R WCI  16
$$

OHZ036-037-039>041-045>050-054>059-063>069-073>076-082>088-261100-
  CENTRAL AND SOUTHEAST OHIO

CITY           SKY/WX    TMP DP  RH WIND       PRES   REMARKS
COLUMBUS       CLOUDY    30  17  58 W14       30.07R WCI  19
OSU AIRPORT    CLOUDY    28  16  60 W10       30.07R WCI  19
BOLTON FIELD   CLOUDY    27  19  69 W9        30.09R WCI  18
RICKENBACK AFB CLOUDY    28  17  63 W9        30.09R WCI  19
NEWARK         CLOUDY    30  15  53 W9        30.06R WCI  22
MARION         FLURRIES  25  17  72 NW9       30.08R WCI  15
LANCASTER      CLOUDY    31  16  54 W9        30.08R WCI  23
ZANESVILLE     CLOUDY    30  17  58 W10       30.06R WCI  21
NEW PHILLY     CLOUDY    28  21  75 W8        30.06R WCI  20
$$




USA.gov is the U.S. government's official web portal to all federal, state and local government web resources and services.